Карточка аэропорта UHBB

Внимание!
Информация на этой странице в стадии наполнения.
Если вы не увидели какой-то информации, или заметили неточность - пожалуйста сообщите нам!
Спасибо!
Команда RU-STAFF
Название аэропортаИгнатьево
Название аэропорта (англ.)Ignatyevo
Превышение640 ft. (195.1 m.)
Координаты50°25.536', 127°24.72'
Высота перехода4000ft
Эшелон переходаQNH>=1013hPa: FL50; 1013hPa>QNH>=977hPa: FL60; QNH<977hPa: FL70
Коды ответчика1601-1617
Зона ОрВДХабаровск РПИ (UHHH)
Данные METARUHBB 140730Z 17002MPS 140V210 9999 SCT033CB 16/10 Q1002 R18L/290260 NOSIG RMK QFE737/0983
Проноз погоды (TAF)UHBB 140446Z 1406/1506 19004G10MPS 9999 BKN020CB TEMPO 1406/1506 3100 -TSRA SCT011 BKN015CB
NOTAMshow/hide NOTAM
AWOS   TABLE

Информация о ВПП

ВПП Длина ВПП (м.) Покрытие Курс ВПП Частота ILS
182800Асфальтобетон180 
362800Асфальтобетон360108.7

Диспетчерские позиции

Позывной Наименование органа УВД Частота
UHBB_TWRБлаговещенск-Вышка127.2



Спутниковое изображение